• In Russia
  • List of Countries
  • For 7 days
  • Water Temperature
  • Satellite Maps
  • Weather Map
  • Weather Widgets
  • user-avatar
    Login

    Hourly Weather Darwin

    Today, 28 May, Sunday

    Time Temperature Precipitation Wind Pressure Humidity
    00:00 +28°C° 0 mm 3 mps 759 mmHg 58%
    01:00 +27°C° 0 mm 4 mps 759 mmHg 59%
    02:00 +27°C° 0 mm 5 mps 758 mmHg 60%
    03:00 +27°C° 0 mm 5 mps 758 mmHg 61%
    04:00 +26°C° 0 mm 5 mps 758 mmHg 63%
    05:00 +26°C° 0 mm 5 mps 758 mmHg 65%
    06:00 +25°C° 0 mm 5 mps 758 mmHg 68%
    07:00 +27°C° 0 mm 6 mps 759 mmHg 63%
    08:00 +28°C° 0 mm 6 mps 759 mmHg 57%
    09:00 +30°C° 0 mm 6 mps 759 mmHg 50%
    10:00 +32°C° 0 mm 6 mps 759 mmHg 44%
    11:00 +34°C° 0 mm 6 mps 759 mmHg 38%
    12:00 +35°C° 0 mm 6 mps 758 mmHg 31%
    13:00 +35°C° 0 mm 6 mps 758 mmHg 31%
    14:00 +36°C° 0 mm 5 mps 757 mmHg 30%
    15:00 +36°C° 0 mm 4 mps 757 mmHg 32%
    16:00 +34°C° 0 mm 3 mps 757 mmHg 38%
    17:00 +31°C° 0 mm 3 mps 757 mmHg 44%
    18:00 +29°C° 0 mm 2 mps 757 mmHg 50%
    19:00 +28°C° 0 mm 2 mps 758 mmHg 50%
    20:00 +28°C° 0 mm 2 mps 758 mmHg 50%
    21:00 +28°C° 0 mm 2 mps 758 mmHg 50%
    22:00 +27°C° 0 mm 3 mps 759 mmHg 51%
    23:00 +27°C° 0 mm 4 mps 759 mmHg 53%

    Tomorrow, 29 May, Monday

    Time Temperature Precipitation Wind Pressure Humidity
    00:00 +27°C° 0 mm 5 mps 759 mmHg 54%
    01:00 +27°C° 0 mm 6 mps 759 mmHg 54%
    02:00 +27°C° 0 mm 6 mps 759 mmHg 54%
    03:00 +27°C° 0 mm 6 mps 759 mmHg 55%
    04:00 +27°C° 0 mm 6 mps 759 mmHg 56%
    05:00 +26°C° 0 mm 6 mps 759 mmHg 57%
    06:00 +26°C° 0 mm 6 mps 759 mmHg 58%
    07:00 +27°C° 0 mm 7 mps 760 mmHg 56%
    08:00 +28°C° 0 mm 7 mps 760 mmHg 53%
    09:00 +29°C° 0 mm 8 mps 760 mmHg 51%
    10:00 +32°C° 0 mm 8 mps 760 mmHg 46%
    11:00 +33°C° 0 mm 8 mps 759 mmHg 41%
    12:00 +35°C° 0 mm 7 mps 759 mmHg 35%
    13:00 +35°C° 0 mm 7 mps 758 mmHg 35%
    14:00 +36°C° 0 mm 7 mps 758 mmHg 34%
    15:00 +36°C° 0 mm 6 mps 757 mmHg 33%
    16:00 +34°C° 0 mm 5 mps 757 mmHg 39%
    17:00 +33°C° 0 mm 4 mps 758 mmHg 45%
    18:00 +30°C° 0 mm 3 mps 758 mmHg 50%
    19:00 +29°C° 0 mm 3 mps 758 mmHg 51%
    20:00 +29°C° 0 mm 4 mps 759 mmHg 51%
    21:00 +28°C° 0 mm 4 mps 759 mmHg 51%
    22:00 +28°C° 0 mm 5 mps 760 mmHg 49%
    23:00 +28°C° 0 mm 7 mps 760 mmHg 47%

    Day after tomorrow, 30 May, Tuesday

    Time Temperature Precipitation Wind Pressure Humidity
    00:00 +28°C° 0 mm 8 mps 760 mmHg 44%
    01:00 +27°C° 0 mm 8 mps 760 mmHg 49%
    02:00 +26°C° 0 mm 7 mps 760 mmHg 54%
    03:00 +24°C° 0 mm 7 mps 760 mmHg 58%
    04:00 +24°C° 0 mm 7 mps 760 mmHg 59%
    05:00 +23°C° 0 mm 7 mps 760 mmHg 59%
    06:00 +23°C° 0 mm 7 mps 760 mmHg 60%
    07:00 +24°C° 0 mm 8 mps 760 mmHg 51%
    08:00 +26°C° 0 mm 8 mps 761 mmHg 42%
    09:00 +28°C° 0 mm 9 mps 762 mmHg 33%
    10:00 +29°C° 0 mm 8 mps 761 mmHg 29%
    11:00 +32°C° 0 mm 8 mps 761 mmHg 26%
    12:00 +34°C° 0 mm 7 mps 760 mmHg 22%
    13:00 +34°C° 0 mm 7 mps 760 mmHg 22%
    14:00 +35°C° 0 mm 6 mps 759 mmHg 22%
    15:00 +35°C° 0 mm 5 mps 758 mmHg 21%
    16:00 +33°C° 0 mm 5 mps 759 mmHg 25%
    17:00 +30°C° 0 mm 4 mps 759 mmHg 29%
    18:00 +28°C° 0 mm 4 mps 759 mmHg 33%
    19:00 +28°C° 0 mm 5 mps 760 mmHg 32%
    20:00 +27°C° 0 mm 5 mps 760 mmHg 31%
    21:00 +26°C° 0 mm 6 mps 761 mmHg 30%
    22:00 +26°C° 0 mm 6 mps 761 mmHg 31%
    23:00 +24°C° 0 mm 6 mps 761 mmHg 32%

    31 May, Wednesday

    Time Temperature Precipitation Wind Pressure Humidity
    00:00 +24°C° 0 mm 7 mps 761 mmHg 33%
    01:00 +23°C° 0 mm 7 mps 760 mmHg 34%
    02:00 +23°C° 0 mm 7 mps 760 mmHg 34%
    03:00 +22°C° 0 mm 7 mps 760 mmHg 35%
    04:00 +22°C° 0 mm 7 mps 760 mmHg 32%
    05:00 +22°C° 0 mm 8 mps 760 mmHg 29%
    06:00 +22°C° 0 mm 8 mps 761 mmHg 26%
    07:00 +23°C° 0 mm 8 mps 761 mmHg 26%
    08:00 +24°C° 0 mm 8 mps 761 mmHg 26%
    09:00 +26°C° 0 mm 9 mps 762 mmHg 26%
    10:00 +27°C° 0 mm 8 mps 761 mmHg 25%
    11:00 +29°C° 0 mm 8 mps 761 mmHg 24%
    12:00 +30°C° 0 mm 7 mps 760 mmHg 23%
    13:00 +32°C° 0 mm 7 mps 760 mmHg 23%
    14:00 +33°C° 0 mm 6 mps 759 mmHg 23%
    15:00 +33°C° 0 mm 6 mps 758 mmHg 23%
    16:00 +32°C° 0 mm 5 mps 759 mmHg 26%
    17:00 +29°C° 0 mm 5 mps 759 mmHg 28%
    18:00 +28°C° 0 mm 5 mps 759 mmHg 31%
    19:00 +27°C° 0 mm 5 mps 760 mmHg 31%
    20:00 +26°C° 0 mm 6 mps 760 mmHg 31%
    21:00 +26°C° 0 mm 6 mps 761 mmHg 31%
    22:00 +26°C° 0 mm 6 mps 761 mmHg 30%
    23:00 +24°C° 0 mm 6 mps 761 mmHg 30%

    1 June, Thursday

    Time Temperature Precipitation Wind Pressure Humidity
    00:00 +24°C° 0 mm 7 mps 761 mmHg 30%
    01:00 +24°C° 0 mm 7 mps 760 mmHg 30%
    02:00 +24°C° 0 mm 7 mps 760 mmHg 30%
    03:00 +23°C° 0 mm 7 mps 760 mmHg 30%
    04:00 +23°C° 0 mm 7 mps 760 mmHg 31%
    05:00 +23°C° 0 mm 7 mps 760 mmHg 31%
    06:00 +23°C° 0 mm 7 mps 760 mmHg 31%
    07:00 +24°C° 0 mm 7 mps 761 mmHg 32%
    08:00 +26°C° 0 mm 7 mps 761 mmHg 33%
    09:00 +27°C° 0 mm 7 mps 761 mmHg 34%
    10:00 +28°C° 0 mm 7 mps 761 mmHg 33%
    11:00 +30°C° 0 mm 6 mps 760 mmHg 33%
    12:00 +32°C° 0 mm 6 mps 760 mmHg 32%
    13:00 +33°C° 0 mm 5 mps 759 mmHg 33%
    14:00 +34°C° 0 mm 5 mps 759 mmHg 34%
    15:00 +34°C° 0 mm 4 mps 758 mmHg 35%
    16:00 +33°C° 0 mm 4 mps 758 mmHg 39%
    17:00 +30°C° 0 mm 3 mps 759 mmHg 44%
    18:00 +29°C° 0 mm 3 mps 759 mmHg 48%
    19:00 +29°C° 0 mm 4 mps 759 mmHg 47%
    20:00 +28°C° 0 mm 5 mps 760 mmHg 47%
    21:00 +28°C° 0 mm 6 mps 761 mmHg 46%
    22:00 +27°C° 0 mm 6 mps 760 mmHg 47%
    23:00 +27°C° 0 mm 6 mps 760 mmHg 48%

    2 June, Friday

    Time Temperature Precipitation Wind Pressure Humidity
    00:00 +27°C° 0 mm 7 mps 760 mmHg 49%
    01:00 +27°C° 0 mm 7 mps 760 mmHg 51%
    02:00 +26°C° 0 mm 7 mps 759 mmHg 54%
    03:00 +26°C° 0 mm 7 mps 759 mmHg 56%
    04:00 +26°C° 0 mm 7 mps 759 mmHg 57%
    05:00 +26°C° 0 mm 7 mps 759 mmHg 57%
    06:00 +26°C° 0 mm 7 mps 760 mmHg 58%
    07:00 +27°C° 0 mm 8 mps 760 mmHg 55%
    08:00 +27°C° 0 mm 8 mps 761 mmHg 52%
    09:00 +28°C° 0 mm 8 mps 761 mmHg 49%
    10:00 +29°C° 0 mm 8 mps 761 mmHg 45%
    11:00 +32°C° 0 mm 7 mps 760 mmHg 41%
    12:00 +33°C° 0 mm 7 mps 760 mmHg 37%
    13:00 +34°C° 0 mm 6 mps 759 mmHg 37%
    14:00 +34°C° 0 mm 6 mps 758 mmHg 36%
    15:00 +35°C° 0 mm 5 mps 758 mmHg 36%
    16:00 +34°C° 0 mm 5 mps 758 mmHg 39%
    17:00 +32°C° 0 mm 5 mps 758 mmHg 42%
    18:00 +30°C° 0 mm 4 mps 759 mmHg 46%
    19:00 +29°C° 0 mm 5 mps 759 mmHg 45%
    20:00 +29°C° 0 mm 6 mps 760 mmHg 44%
    21:00 +28°C° 0 mm 7 mps 761 mmHg 43%
    22:00 +28°C° 0 mm 7 mps 760 mmHg 45%
    23:00 +27°C° 0 mm 7 mps 760 mmHg 47%
    Show more